Weather History for Wautoma, WI

Change the Weather History Date:

Monday, September 16, 2013

  Actual Average (KPCZ) Record (KPCZ)
Temperature  
Mean Temperature 48 °F -  
Max Temperature 61 °F 69 °F 95 °F (1955)
Min Temperature 36 °F 48 °F 33 °F (1959)
Degree Days  
Heating Degree Days 16    
Moisture  
Dew Point 41 °F    
Average Humidity 78    
Maximum Humidity 100    
Minimum Humidity 42    
Precipitation  
Precipitation 0.00 in - - ()
Sea Level Pressure  
Sea Level Pressure 30.38 in    
Wind  
Wind Speed 6 mph (NE)    
Max Wind Speed 12 mph    
Max Gust Speed -    
Visibility 10 miles    
Events      
Averages and records for this station are not official NWS values.
T = Trace of Precipitation, MM = Missing Value Source: NWS Daily Summary

Daily Weather History Graph

Daily Weather History Graph

Search for Another Location

Airport:

Trip Planner

Search our weather history database for the weather conditions in past years. The results will help you decide how hot, cold, wet, or windy it might be!

Date:

Astronomy

Sep. 16, 2013 Rise Set
Actual Time 6:37 AM CDT 7:05 PM CDT
Civil Twilight 6:08 AM CDT 7:34 PM CDT
Nautical Twilight 5:34 AM CDT 8:08 PM CDT
Astronomical Twilight 4:59 AM CDT 8:43 PM CDT
Moon 5:18 PM CDT 3:18 AM CDT
Length of Visible Light 13h 25m
Length of Day
12h 27m
Waxing Gibbous, 90% of the Moon is Illuminated
Sep 16
Waxing Gibbous
Sep 19
Full
Sep 26
Last Quarter
Oct 4
New
Oct 11
First Quarter

Hourly Weather History & Observations

Time (CDT) Temp. Windchill Dew Point Humidity Pressure Visibility Wind Dir Wind Speed Gust Speed Precip Events Conditions
12:56 AM 50.0 °F - 41.9 °F 74% 30.31 in 10.0 mi NE 11.5 mph - N/A   Overcast
1:18 AM 48.2 °F - 42.8 °F 82% 30.32 in 10.0 mi NNE 9.2 mph - N/A   Scattered Clouds
1:56 AM 45.9 °F 42.9 °F 39.9 °F 80% 30.33 in 10.0 mi NE 5.8 mph - N/A   Clear
2:56 AM 43.0 °F - 41.9 °F 96% 30.35 in 10.0 mi Calm Calm - N/A   Clear
3:56 AM 39.9 °F - 39.9 °F 100% 30.35 in 10.0 mi Calm Calm - N/A   Clear
4:56 AM 37.9 °F 35.5 °F 37.9 °F 100% 30.37 in 10.0 mi NNW 3.5 mph - N/A   Clear
5:56 AM 37.9 °F 34.4 °F 37.9 °F 100% 30.38 in 10.0 mi North 4.6 mph - N/A   Clear
6:56 AM 36.9 °F 34.3 °F 36.9 °F 100% 30.41 in 10.0 mi North 3.5 mph - N/A   Clear
7:56 AM 41.9 °F - 41.9 °F 100% 30.42 in 10.0 mi Calm Calm - N/A   Clear
8:56 AM 47.8 °F - 43.0 °F 83% 30.43 in 10.0 mi NE 6.9 mph - N/A   Clear
9:56 AM 52.0 °F - 41.9 °F 69% 30.44 in 10.0 mi ENE 9.2 mph - N/A   Clear
10:56 AM 54.9 °F - 41.9 °F 62% 30.44 in 10.0 mi East 8.1 mph - N/A   Clear
11:56 AM 55.9 °F - 41.0 °F 57% 30.43 in 10.0 mi ENE 6.9 mph - N/A   Clear
12:56 PM 57.9 °F - 41.0 °F 53% 30.42 in 10.0 mi Variable 5.8 mph - N/A   Clear
1:56 PM 59.9 °F - 39.9 °F 48% 30.41 in 10.0 mi Variable 4.6 mph - N/A   Clear
2:56 PM 61.0 °F - 37.9 °F 42% 30.39 in 10.0 mi SE 8.1 mph - N/A   Clear
3:56 PM 61.9 °F - 41.0 °F 46% 30.38 in 10.0 mi Variable 6.9 mph - N/A   Clear
4:56 PM 61.9 °F - 41.0 °F 46% 30.37 in 10.0 mi SE 4.6 mph - N/A   Clear
5:56 PM 59.9 °F - 39.9 °F 48% 30.37 in 10.0 mi ESE 5.8 mph - N/A   Clear
6:56 PM 54.9 °F - 43.9 °F 66% 30.35 in 10.0 mi ENE 4.6 mph - N/A   Clear
7:56 PM 48.9 °F - 48.9 °F 100% 30.35 in 10.0 mi Calm Calm - N/A   Clear
8:56 PM 45.9 °F - 45.9 °F 100% 30.36 in 10.0 mi Calm Calm - N/A   Clear
9:56 PM 43.9 °F - 43.9 °F 100% 30.37 in 10.0 mi Calm Calm - N/A   Clear
10:56 PM 41.9 °F - 41.9 °F 100% 30.38 in 10.0 mi Calm Calm - N/A   Clear
11:56 PM 39.9 °F - 39.9 °F 100% 30.38 in 10.0 mi Calm Calm - N/A   Clear